Location: Lecco
(45.8566°N, 9.3977°E)
Time: 20:28:15
(UTC+02:00)

Vanguard 1 Rocket - Pass Details

Date: 18 August 2020
Orbit: 655 x 4221 km, 34.3° (Epoch: 30 September)

Event Time Altitude Azimuth Distance (km) Brightness Sun altitude
Exits shadow 05:47:44 - 232° (SW) 5,664 10.8 -7.0°
Reaches altitude 10° 05:49:40 10° 229° (SW) 5,103 10.6 -6.7°
Maximum altitude 06:00:35 33° 172° (S) 2,398 9.4 -5.0°
Drops below altitude 10° 06:06:59 10° 111° (ESE) 2,949 10.8 -4.0°
Sets 06:09:22 0° 100° (E) 3,630 11.6 -3.6°
